User: anonymous
Location: Fort Wayne
(41.1310°N, 85.1290°W)
Time: 23:36:32
(UTC-04:00)
Language:

Helios 1B - Orbit

View from above orbital plane
View from above orbital plane
View from above satellite
View from above satellite

Ground track
Ground track

The orbit data is extracted from the following two-line orbital elements,

1 25977U 99064A   14260.34267925  .00001429  00000-0  19399-3 0  3588
2 25977 098.1605 339.3408 0000117 086.7187 320.2679 14.80459175795360
Epoch (UTC): 17 September 2014 08:13:27
Eccentricity: 0.0000117
inclination: 98.1605°
perigee height: 628 km
apogee height: 628 km
right ascension of ascending node: 339.3408°
argument of perigee: 86.7187°
revolutions per day: 14.80459175
mean anomaly at epoch: 320.2679°
orbit number at epoch: 79536

The dashed part of the orbit path shows where the satellite is in the earth's shadow,  

DLR